Regional Weather Roundup
Issued by NWS Newport/Morehead, NC

Current Version | Previous Version | Text Only | Print | Product List | Glossary On
Versions: 1 2 3 4 5 6 7 8 9 10 11 12 13 14 15 16 17 18 19 20 21 22 23 24 25 26 27 28 29 30 31 32 33 34 35 36 37 38 39 40 41 42 43 44 45 46 47 48 49 50
000
ASUS42 KMHX 020924
RWRMHX
WEATHER ROUNDUP FOR EASTERN NORTH CAROLINA
NATIONAL WEATHER SERVICE NEWPORT/MOREHEAD CITY NC
500 AM EDT THU APR 02 2015

NOTE: "FAIR" INDICATES FEW OR NO CLOUDS BELOW 12,000 FEET
WITH NO SIGNIFICANT WEATHER AND/OR OBSTRUCTIONS TO VISIBILITY

NCZ015>017-031-032-045>047-102-103-021000-
NORTH COAST

CITY           SKY/WX    TMP DP  RH WIND       PRES   REMARKS
EDENTON        CLEAR     36  32  86 CALM      30.31R
ELIZABETH CITY CLEAR     34  31  88 CALM      30.31R
KITTY HAWK     SUNNY     41  33  73 CALM      30.29R
MANTEO         CLEAR     38  35  87 CALM      30.32R

$$

NCZ045>047-081-094-103-104-021000-
CENTRAL COAST

CITY           SKY/WX    TMP DP  RH WIND       PRES   REMARKS
FRISCO         CLEAR     43  31  62 NE5       30.29F
SWANQUARTER      N/A     37 N/A N/A CALM      30.27S

$$

NCZ095-097-098-100-101-021000-
SOUTHERN COAST

CITY           SKY/WX    TMP DP  RH WIND       PRES   REMARKS
BEAUFORT       CLEAR     41  36  82 NE3       30.29S
CEDAR ISLAND     N/A     52 N/A N/A E2        30.33S
JACKSONVILLE   CLEAR     40  36  86 CALM      30.29R
PINEY ISLAND   SUNNY    N/A N/A N/A E3        30.30R
WILMINGTON     CLEAR     46  39  76 CALM      30.28R


$$

NCZ011>013-027>030-043-044-078>080-089-090>093-098-021000-
COASTAL PLAIN

CITY           SKY/WX    TMP DP  RH WIND       PRES   REMARKS
AHOSKIE        CLEAR     36  32  85 CALM      30.30R
CLINTON        CLEAR     41  40  97 CALM      30.29S
ELIZABETHTOWN  CLEAR     42  41  97 CALM      30.26F
GOLDSBORO      CLEAR     39  39  99 CALM      30.27R
GREENVILLE     CLEAR     45  34  65 S3        30.29R
HAVELOCK       CLEAR     38  34  85 E3        30.30F
KENANSVILLE    CLEAR     34  33  94 CALM      30.30S
KINSTON        CLEAR     37  35  92 CALM      30.30R
NEW BERN       CLEAR     49  34  56 SE7       30.29F
RICHLANDS      CLEAR     36  28  75 CALM      30.30R
ROCKY MOUNT    CLEAR     37  35  92 CALM      30.29S
WASHINGTON     CLEAR     40  35  81 E3        30.29S
WHITEVILLE     CLEAR     50  39  65 SE5       30.25F

$$

AMZ130-135-150-152-154-156-158-170-250-252-270-ANZ085-086-088-633-658-670-021000-
MARINE OBSERVATIONS

STATION/POSITION TIME  TEMP    WIND        PRES    WAVE   SWELL
                       AIR SEA DIR/SP/G            HT/PER HT/PER
                 (UTC) (F)     (DEG/KT/KT) (MB)    (FT/S) (FT/S)
CHESAPEAKE LIGHT 0900   44     190/ 14/ 15 1026.5
64 E VA BEACH    0850   47 54  260/  6/  8 1025.7    3/ 6   2/ 6
DUCK             0900   43 43  170/  6/  6 1025.4
2 E DUCK         0811      42                N/A     2/ 6
10 NE DUCK       NOT AVBL
OREGON INLET     0900   42 47   90/  7/  9 1025.7
HATTERAS CG      0900   45 56   80/  5/  6 1025.8
CAPE LOOKOUT     0900   57      60/ 10/ 11 1025.4
BEAUFORT LAB     0900   48 55   20/  3/  4 1024.7
27 SE WRIGHTSVLE 0900   58 64  120/ 14/ 19 1026.4
5 SE WRIGHTSVLE  0900   58 56  120/  8/ 12 1025.0
225 S CAPE HAT   0850   62 69   60/ 14/ 17 1024.4    6/ 9   5/ 9
41 SE CHARLESTON 0850   65 68   90/ 17/ 21 1022.5    5/ 7

$$


USA.gov is the U.S. government's official web portal to all federal, state and local government web resources and services.